Regional Weather Roundup
Issued by NWS

Home | Current Version | Previous Version | Graphics & Text | Print | Product List | Glossary On
Versions: 1 2 3 4 5 6 7 8 9 10 11 12 13 14 15 16 17 18 19 20 21 22 23 24 25 26 27 28 29 30 31 32 33 34 35 36 37 38 39 40 41 42 43 44 45 46 47 48 49 50
000
ASUS43 KOAX 241402
RWRNE

WEATHER ROUNDUP FOR NEBRASKA
NATIONAL WEATHER SERVICE OMAHA NE
900 AM CDT THU APR 24 2014

NOTES: SATELLITE DATA IS BEING USED TO AUGMENT CLOUD COVER ABOVE
       12000 FEET.
       "FAIR" INDICATES FEW OR NO CLOUDS BELOW 12,000 FEET WITH NO
       SIGNIFICANT WEATHER AND/OR OBSTRUCTIONS TO VISIBILITY.

  * THESE STATIONS DO NOT REPORT WEATHER SUCH AS RAIN...SNOW OR FOG.

NEZ001>004-019>022-054>056-241500-
NEBRASKA PANHANDLE

CITY           SKY/WX    TMP DP  RH WIND       PRES   REMARKS
SCOTTSBLUFF    SUNNY     41  21  44 NW9G20    29.97R
ALLIANCE       SUNNY     43  28  55 W15       29.92S
CHADRON        SUNNY     45  29  53 SW7       29.91F
KIMBALL        SUNNY     43  18  37 W18       29.97R
SIDNEY         SUNNY     46  20  35 NW23G31   29.96S
$$

NEZ057>060-069>072-079>082-241500-
SOUTHWEST NEBRASKA

CITY           SKY/WX    TMP DP  RH WIND       PRES   REMARKS
NORTH PLATTE   PTSUNNY   49  36  61 NW10      29.88R
IMPERIAL       MOSUNNY   49  32  52 NW21G28   29.92R
LEXINGTON      CLOUDY    55  33  41 NW20G25   29.84R
MCCOOK         PTSUNNY   54  36  50 NW21      29.88R
OGALLALA       SUNNY     49  30  48 NW25G31   29.91S
$$

NEZ005>010-023>029-035>040-094-241500-
NORTH CENTRAL NEBRASKA

CITY           SKY/WX    TMP DP  RH WIND       PRES   REMARKS
VALENTINE      SUNNY     49  32  52 NW9       29.85R
AINSWORTH      SUNNY     54  32  43 NW18G24   29.83S
BROKEN BOW     MOSUNNY   54  31  41 NW22G30   29.82R
O`NEILL        MOSUNNY   53  33  47 NW17G23   29.79S
ORD            MOSUNNY   52  39  61 NW14      29.79S
THEDFORD       MOSUNNY   53  32  46 NW15G21   29.86S
$$

NEZ041-046>049-061>064-073>077-083>087-241500-
SOUTH CENTRAL NEBRASKA

CITY           SKY/WX    TMP DP  RH WIND       PRES   REMARKS
GRAND ISLAND   CLOUDY    53  41  63 NW20G30   29.76S
HASTINGS       CLOUDY    53  41  63 NW21G28   29.77R
HEBRON         CLOUDY    53  45  72 N10       29.74R
HOLDREGE       PTSUNNY   52  39  61 N16       29.81R
KEARNEY *      PTSUNNY   52  39  62 N17G24    29.80R
YORK           CLOUDY    52  46  82 NW25G32   29.71R
$$

NEZ011>018-030>034-042>045-241500-
NORTHEAST NEBRASKA

CITY           SKY/WX    TMP DP  RH WIND       PRES   REMARKS
NORFOLK        CLOUDY    55  44  66 NW21G28   29.70S
BLAIR          CLOUDY    49  47  93 W8        29.66R FOG
COLUMBUS *     PTSUNNY   54  41  62 NW18G25   29.72R
TEKAMAH        CLOUDY    51  47  86 NW10      29.64F
$$

NEZ050>053-065>068-078-088>093-241500-
SOUTHEAST NEBRASKA

CITY           SKY/WX    TMP DP  RH WIND       PRES   REMARKS
LINCOLN        CLOUDY    56  46  69 NW17      29.70R
OMAHA EPPLEY   CLOUDY    50  46  86 W6        29.66R
BEATRICE       CLOUDY    54  51  89 W8        29.73R
FALLS CITY     CLOUDY    55  55 100 W12       29.67R FOG
PLATTSMOUTH    PTSUNNY   51  49  93 W12       29.65S FOG
$$

NEZ044-045-051>053-067-241500-
OMAHA AREA

CITY           SKY/WX    TMP DP  RH WIND       PRES   REMARKS
OMAHA EPPLEY   CLOUDY    50  46  86 W6        29.66R
BLAIR          CLOUDY    49  47  93 W8        29.66R FOG
OFFUTT AFB     PTSUNNY   51  51 100 W5        29.66R
PLATTSMOUTH    PTSUNNY   51  49  93 W12       29.65S FOG
$$



USA.gov is the U.S. government's official web portal to all federal, state and local government web resources and services.